Weather in Monteverde

Costa Rica     10°18′02″N   84°47′58″W
temp.,
°C
wind,
m/s
gust,
m/s
humid.,
%
clouds,
%
prec.,
mm/h
press.,
hPa
HPBL,
m
19 september, sun
sun1900:00+19ne3495100 0.1 1013157
03:00+19ne349578 0.1 101294
06:00+19ne359541 0.1 1014192
09:00+24ne247572 0.1 1015843
12:00+24ne237643 1.7 1013925
15:00+24ne237594 2.6 1011837
18:00+21ne128999 3.2 101247
21:00+20ne229484 0.1 101560
20 september, mon
mon2000:00+18nne229379 0.1 101320
03:00+18ne339387 0.0 101254
06:00+18ne359397 0.0 1013142
09:00+23ne456963 0.0 1014716
12:00+26ne2465100 0.1 10121228
15:00+23ne1278100 1.2 1011714
18:00+20ne229391 1.8 101369
21:00+19ne229592 0.1 101453
21 september, tue
tue2100:00+18ne229458 0.1 101338
03:00+18ne239468 0.0 101282
06:00+18ne239325 0.0 101464
09:00+24ne127055 0.0 1015912
12:00+24ese027088 0.9 1013996
15:00+24ene127561 3.4 1011661
18:00+20ene129338 5.9 101349
21:00+20ne119495 0.1 101518
22 september, wed
wed2200:00+19n119554 0.1 101415
03:00+18ne239526 0.0 101373
06:00+18ne33938 0.0 101483
09:00+24ne23688 0.0 1015897
12:00+25ne026664 0.4 10121203
15:00+24ene1372100 2.9 1011718
18:00+21nne2389100 4.3 1012117
21:00+19nne229480 0.1 101447
23 september, thu
thu2300:00+18ene119393 0.1 101412
03:00+18e0091100 0.0 101212
06:00+18ne22875 0.0 101318
09:00+24nne126349 0.0 1014920
12:00+26w126021 0.2 10121427
15:00+24ssw127399 1.2 1010778
18:00+20ne119356 3.1 101234
21:00+19ne129538 0.4 101558